www.pogodaiklimat.ru

Архив погоды в Лубанго (Ангола)

Время
(UTC), дата
10 13.04
11 13.04
12 13.04
13 13.04
14 13.04
15 13.04
16 13.04
17 13.04
18 13.04
19 13.04
20 13.04
21 13.04
22 13.04
23 13.04
00 14.04
01 14.04
02 14.04
03 14.04
04 14.04
05 14.04
07 14.04
08 14.04
09 14.04
10 14.04
11 14.04
12 14.04
13 14.04
14 14.04
15 14.04
16 14.04
17 14.04
19 14.04
20 14.04
21 14.04
22 14.04
23 14.04
00 15.04
01 15.04
02 15.04
03 15.04
04 15.04
05 15.04
06 15.04
07 15.04
08 15.04
09 15.04
10 15.04
11 15.04
12 15.04
13 15.04
15 15.04
16 15.04
17 15.04
19 15.04
20 15.04
21 15.04
22 15.04
23 15.04
00 16.04
01 16.04
02 16.04
03 16.04
04 16.04
05 16.04
06 16.04
07 16.04
09 16.04
10 16.04
11 16.04
12 16.04
15 16.04
16 16.04
17 16.04
18 16.04
20 16.04
21 16.04
22 16.04
23 16.04
00 17.04
01 17.04
03 17.04
04 17.04
05 17.04
06 17.04
07 17.04
08 17.04
09 17.04
10 17.04
12 17.04
13 17.04
15 17.04
16 17.04
17 17.04
19 17.04
20 17.04
21 17.04
22 17.04
23 17.04
00 18.04
02 18.04
03 18.04
05 18.04
06 18.04
07 18.04
08 18.04
09 18.04
11 18.04
12 18.04
14 18.04
15 18.04
21 18.04
22 18.04
00 19.04
01 19.04
02 19.04
03 19.04
04 19.04
05 19.04
06 19.04
07 19.04
08 19.04
09 19.04
10 19.04
11 19.04
12 19.04
13 19.04
14 19.04
15 19.04
16 19.04
17 19.04
18 19.04
19 19.04
20 19.04
21 19.04
23 19.04
00 20.04
01 20.04
02 20.04
03 20.04
04 20.04
05 20.04
06 20.04
07 20.04
08 20.04
09 20.04
10 20.04
Ветер
(напр.,м/с)
Видим. Явления Облачность Т
(С)
Тd
(С)
f
(%)
Тe
(С)
Тes
(С)
Комфортность P
(гПа)
Po
(гПа)
Тmin
(С)
Tmax
(С)
R
(мм)
R24
(мм)
S
(см)
В 4 10 км 2/2 600 м +25.0 +16.0 57 +28 +37 жарко 1024.0 835.2
СВ 4 10 км 5/5 600 м +26.0 +18.0 61 +30 +37 душно 1023.0 835.1
СВ 5 н/о 5/5 600 м +24.0 +16.0 61 +27 +32 жарко 1023.0 833.8
С 4 10 км дождь 8/8 600 м
[Ns]
+26.0 +17.0 58 +30 +32 душно 1022.0 834.2
С 5 10 км 5/5 600 м 1022.0
С 4 50 км ?/? +23.0 +17.0 69 +28 +29 душно 1021.0 831.7
нст 2 н/о ясно +22.0 +17.0 73 +26 +26 душно 1022.0 831.9
З 2 н/о ясно +20.0 +16.0 78 +23 +23 комфорт 1022.0 830.6
Ю 3 н/о ясно +20.0 +16.0 78 +23 +23 комфорт 1023.0 831.5
Ю 2 н/о ясно +19.0 +16.0 83 +21 +21 комфорт 1023.0 830.9
нст 1 н/о ясно +19.0 +16.0 83 +21 +21 комфорт 1024.0 831.7
СЗ 2 н/о н/о +17.3 +16.3 94 +17 +17 1024.0 830.4
СЗ 2 н/о ясно +17.0 +17.0 100 +17 +17 1025.0 831.3
С 3 н/о ясно +17.0 +17.0 100 +17 +17 1025.0 831.3
СЗ 2 н/о ясно +17.0 +17.0 100 +17 +17 1024.0 830.5
С 2 н/о ясно +16.0 +16.0 100 +16 +16 1023.0 829.0
С 3 н/о ясно +17.0 +17.0 100 +17 +17 1023.0 829.7
С 2 н/о н/о +16.6 +16.4 94 +17 +17 1023.0 829.6
нст 2 н/о ясно +16.0 +16.0 100 +16 +16 1023.0 829.0
нст 2 н/о ясно +16.0 +16.0 100 +16 +16 1024.0 829.8
штиль 0 н/о ясно +20.0 +18.0 88 +23 +23 комфорт 1025.0 833.2
ЮВ 3 10 км 2/2 750 м +22.0 +16.0 69 +26 +31 душно 1025.0 834.3
СВ 3 10 км 8/4 750 м
[Cu med, cong Cs]
+23.8 +16.1 61 +27 +33 жарко 1026.0 836.3
нст 3 н/о ясно +25.0 +16.0 57 +28 +28 жарко 1025.0 836.0
СВ 4 10 км 5/5 750 м +25.0 +16.0 57 +28 +34 жарко 1025.0 836.0
СВ 3 10 км 8/8 900 м +26.0 +15.0 51 +29 +32 душно 1024.0 835.7
СВ 4 10 км 8/8 900 м +27.0 +15.0 48 +30 +32 душно 1023.0 835.5
В 3 10 км 8/8 900 м +26.0 +14.0 48 +28 +30 жарко 1023.0 834.8
В 3 10 км 8/8 900 м +25.0 +15.0 54 +28 +29 жарко 1023.0 834.3
В 2 н/о ясно +24.0 +14.0 54 +26 +26 жарко 1023.0 833.7
В 2 н/о ясно +23.0 +14.0 57 +26 +26 жарко 1024.0 833.9
СВ 2 н/о ясно +20.0 +15.0 73 +23 +23 комфорт 1025.0 833.0
З 1 н/о ясно +19.0 +16.0 83 +21 +21 комфорт 1026.0 833.3
З 1 н/о н/о +18.4 +15.6 88 +19 +19 1026.0 832.7
Ю 2 н/о ясно +18.0 +16.0 88 +19 +19 1026.0 832.7
ЮЗ 2 н/о ясно +17.0 +15.0 88 +17 +17 1026.0 832.0
Ю 3 н/о ясно +17.0 +14.0 82 +17 +17 1025.0 831.1
Ю 3 н/о ясно +18.0 +14.0 77 +18 +18 1025.0 831.7
Ю 3 н/о ясно +17.0 +14.0 82 +17 +17 1024.0 830.3
Ю 3 н/о н/о +16.2 +14.0 88 +16 +16 1024.0 829.7
Ю 3 н/о ясно +17.0 +14.0 82 +17 +17 1024.0 830.3
Ю 3 н/о ясно +17.0 +14.0 82 +17 +17 1025.0 831.1
Ю 3 10 км ясно +18.0 +15.0 83 +18 +19 1026.0 832.6
Ю 2 10 км ясно +21.0 +15.0 69 +25 +29 комфорт 1026.0 834.4
В 3 10 км ясно +23.0 +16.0 65 +27 +34 душно 1027.0 836.5
В 4 15 км 3/3 750 м
[Sc diur, vesp Ci fib]
+24.3 +15.5 58
В 4 н/о 5/5 750 м +26.0 +15.0 51 +29 +34 душно 1026.0 837.4
СВ 5 н/о ясно +26.0 +14.0 48 +28 +28 жарко 1026.0 837.3
В 4 н/о 8/8 750 м +26.0 +14.0 48 +28 +31 жарко 1025.0 836.5
В 4 н/о 5/5 600 м +27.0 +13.0 42 +29 +33 жарко 1025.0 837.0
В 5 15 км 5/5 750 м
[Cu hum As trans]
+26.8 +12.8 42
В 2 н/о ясно +24.0 +13.0 50 +26 +26 жарко 1024.0 834.4
В 1 н/о ясно +23.0 +13.0 53 +26 +26 жарко 1024.0 833.8
нст 1 н/о ясно +19.0 +14.0 73 +21 +21 комфорт 1025.0 832.3
В 2 н/о ясно +20.0 +14.0 68 +23 +23 комфорт 1025.0 832.9
ЮЗ 3 н/о н/о +18.4 +14.3 77 +18 +18 1025.0 831.7
Ю 2 н/о ясно +18.0 +15.0 83 +19 +19 1025.0 831.8
Ю 3 н/о ясно +18.0 +14.0 77 +18 +18 1025.0 831.7
Ю 3 н/о ясно +18.0 +14.0 77 +18 +18 1024.0 830.9
ЮЗ 3 н/о ясно +17.0 +14.0 82 +17 +17 1024.0 830.3
ЮЗ 3 н/о ясно +17.0 +13.0 77 +17 +17 1024.0 830.2
ЮЗ 3 н/о н/о +16.7 +13.4 77 +17 +17 1024.0 830.2
ЮЗ 3 н/о ясно +16.0 +13.0 82 +16 +16 1024.0 829.6
ЮЗ 3 н/о ясно +16.0 +13.0 82 +16 +16 1024.0 829.6
ЮЗ 3 10 км 2/2 750 м +18.0 +15.0 83 +18 +19 1025.0 831.8
нст 2 10 км ясно +23.0 +15.0 61 +27 +27 душно 1025.0 834.8
ЮВ 2 н/о н/о +25.4 +13.9 49 +27 +31 жарко 1025.0 835.9
нст 3 10 км 5/5 600 м +26.0 +15.0 51 +29 +36 душно 1025.0 836.5
ЮВ 3 10 км 8/8 600 м +27.0 +14.0 45 +29 +32 жарко 1025.0 837.1
нст 3 н/о ясно +27.0 +13.0 42 +29 +29 жарко 1024.0 836.2
Ю 3 н/о н/о +25.3 +13.8 50 +27 +27 жарко 1022.0 833.5
В 3 10 км 5/5 1200 м +25.0 +15.0 54 +28 +28 жарко 1022.0 833.5
нст 2 н/о ясно +23.0 +14.0 57 +26 +26 жарко 1022.0 832.3
В 2 10 км 2/2 1200 м +21.0 +14.0 64 +25 +25 комфорт 1022.0 831.1
штиль 0 н/о ясно +19.0 +15.0 78 +20 +20 1023.0 830.8
Ю 2 н/о н/о +18.2 +14.7 83 +19 +19 1023.0 830.2
ЮЗ 2 н/о ясно +18.0 +15.0 83 +19 +19 1023.0 830.2
З 3 н/о ясно +17.0 +15.0 88 +17 +17 1023.0 829.6
З 2 н/о ясно +17.0 +15.0 88 +17 +17 1023.0 829.6
ЮЗ 2 н/о ясно +17.0 +14.0 82 +17 +17 1023.0 829.5
ЮЗ 2 н/о н/о +16.4 +14.2 88 +16 +16 1023.0 828.9
Ю 2 н/о ясно +16.0 +14.0 88 +16 +16 1023.0 828.9
ЮЗ 2 н/о ясно +16.0 +14.0 88 +16 +16 1023.0 828.9
Ю 2 10 км 8/8 900 м +18.0 +15.0 83 +19 +19 1024.0 831.0
нст 2 10 км 5/5 900 м +23.0 +15.0 61 +27 +29 душно 1024.0 834.0
СВ 3 10 км ясно +24.0 +15.0 57 +27 +34 жарко 1025.0 835.4
СВ 3 15 км 1/1 900 м
[Cu hum]
+25.6 +15.3 51 +29 +37 душно 1025.0 836.5
СВ 3 10 км 5/5 900 м +27.0 +15.0 48 +30 +37 душно 1024.0 836.3
СВ 4 10 км 8/8 900 м +28.0 +15.0 45 +31 +33 душно 1023.0 836.1
С 4 10 км 8/8 900 м +28.0 +17.0 51 +32 +34 душно 1023.0 836.2
нст 1 8000 м 8/6 900 м
[Cb calv Ci fib]
+22.0 +18.0 78 +27 +28 душно 1022.0 832.0
нст 1 н/о гроза без осадков 5/5 900 м
[Cb]
+23.0 +13.0 53 +26 +27 жарко 1023.0 833.0
З 3 10 км гроза без осадков 5/2 750 м
[Ac Cb]
+20.0 +15.0 73 +23 +23 комфорт 1023.0 831.4
Ю 4 10 км 5/5 1200 м +20.0 +16.0 78 +23 +23 комфорт 1025.0 833.1
Ю 3 н/о ясно +19.0 +15.0 78 +20 +20 1025.0 832.4
Ю 3 н/о н/о +18.9 +15.2 79
Ю 3 н/о ясно +18.0 +15.0 83 +18 +18 1026.0 832.6
Ю 3 н/о ясно +18.0 +15.0 83 +18 +18 1025.0 831.8
Ю 3 н/о ясно +18.0 +15.0 83 +18 +18 1025.0 831.8
Ю 3 н/о ясно +18.0 +14.0 77 +18 +18 1024.0 830.9
Ю 3 н/о н/о +17.1 +13.6 82 +17 +17 1024.0 830.3
Ю 2 н/о ясно +16.0 +14.0 88 +16 +16 1025.0 830.5
Ю 3 н/о ясно +19.0 +15.0 78 +20 +20 1026.0 833.2
Ю 3 н/о ясно +23.0 +15.0 61 +27 +27 душно 1027.0 836.4
В 3 10 км ясно +24.0 +15.0 57 +27 +33 жарко 1027.0 837.0
СВ 4 10 км 1/1 900 м
[Cu hum]
+24.7 +15.9 58 1026.7 836.7
В 5 10 км 8/8 1050 м +27.0 +15.0 48 +30 +32 душно 1026.0 837.9
В 6 10 км 8/8 1050 м +28.0 +14.0 42 +30 +31 жарко 1026.0 838.4
СВ 5 10 км 5/5 900 м +28.0 +14.0 42 +30 +32 жарко 1024.0 836.8
В 5 10 км 8/8 900 м +26.0 +14.0 48 +28 +29 жарко 1024.0 835.7
Ю 3 н/о н/о +17.7 +13.8 77 +18 +18 1027.0 833.3
Ю 3 н/о ясно +19.0 +14.0 73 +20 +20 1027.0 834.0
Ю 3 н/о ясно +17.0 +13.0 77 +17 +17 1026.0 831.9
Ю 2 н/о ясно +17.0 +13.0 77 +17 +17 1026.0 831.9
Ю 2 н/о ясно +17.0 +13.0 77 +17 +17 1025.0 831.1
Ю 3 н/о н/о +16.1 +12.7 82 +16 +16 1025.0 830.4
ЮВ 2 н/о ясно +16.0 +13.0 82 +16 +16 1026.0 831.2
Ю 3 н/о ясно +17.0 +13.0 77 +17 +17 1026.0 831.9
Ю 2 н/о ясно +19.0 +13.0 68 +21 +21 комфорт 1027.0 833.9
В 3 10 км 2/2 750 м +22.0 +14.0 60 +25 +27 комфорт 1027.0 835.8
В 5 10 км 2/2 750 м +24.0 +14.0 54 +26 +30 жарко 1028.0 837.8
В 6 10 км 2/2 900 м +25.0 +12.0 44 +27 +31 жарко 1027.0 837.4
В 8 10 км 2/2 750 м +26.0 +9.0 34 +26 +29 жарко 1027.0 837.8
В 8 н/о ясно +26.0 +11.0 39 +27 +27 жарко 1027.0 837.9
В 8 н/о ясно +26.0 +11.0 39 +27 +27 жарко 1027.0 837.9
штиль 0 н/о ясно
В 8 н/о ясно
ЮВ 6 10 км 4/4 750 м
[Cu Sc]
+26.6 +6.8 28 +27 +27 жарко 1024.0 835.9
В 5 10 км 2/2 750 м +26.0 +7.0 30 +26 +26 жарко 1024.0 835.3
ЮВ 2 10 км ясно +22.0 +9.0 43 +23 +23 комфорт 1025.0 833.8
В 3 10 км 5/5 1020 м +21.0 +9.0 46 +23 +23 комфорт 1025.0 833.2
ЮВ 3 н/о ясно +19.0 +10.0 56 +20 +20 1026.0 832.9
В 3 10 км ясно +19.0 +9.0 52 +20 +20 1026.0 832.9
В 3 >70 км н/о +19.1 +9.0 52 1026.0 831.6
Ю 2 10 км ясно +16.0 +10.0 68 +16 +16 1026.0 831.1
Ю 2 10 км ясно +15.0 +10.0 72 +15 +15 1026.0 830.4
Ю 3 10 км ясно +15.0 +10.0 72 +14 +14 1025.0 829.6
Ю 2 10 км ясно +15.0 +10.0 72 +15 +15 1025.0 829.6
Ю 2 >70 км ясно +15.3 +10.5 77 +15 +15 1024.0 828.9
В 2 10 км ясно +18.0 +10.0 59 +19 +19 1024.0 830.7
В 3 10 км ясно +18.0 +10.0 59 +18 +18 1025.0 831.5
В 2 н/о ясно +20.0 +11.0 56 +22 +22 комфорт 1025.0 832.8
В 3 н/о ясно +22.0 +11.0 50 +24 +24 комфорт 1026.0 834.8
В 5 10 км ясно +24.0 +11.0 44 +25 +30 комфорт 1026.0 835.9
В 6 10 км ясно +26.0 +9.0 34 +26 +31 жарко 1026.0 837.0
В 6 10 км 2/2 900 м +26.0 +8.0 32 +26 +31 жарко 1025.0 836.1
Местоположение метеостанции Лубанго (Ангола): широта -14.93 долгота 13.58 высота над уровнем моря 1758 м.
В архиве по умолчанию представлена погода в Лубанго за последнюю неделю. Архивные данные за месяц целиком и за предыдущие месяцы, начиная с января 2011 года, Вы можете получить, выбрав интересующий диапазон дат из раскрывающегося списка и нажав кнопку "Найти!".
*Определитесь, кто Вы:
Внимание! Время в таблицах - всемирное. Для получения местного времени необходимо прибавить поправку, которая равна 1 ч.
Некоторые строки с данными для отдельных станций могут быть выделены курсивом. Это означает, что фактические данные отсутствуют по различным причинам, а приведенные значения являются расчетными модельными данными для данного пункта наблюдений.
Смотрите также архив погоды в соседних городах и на ближайших метеорологических станциях:
Партнеры нашего сайта:      
Пояснения к столбцам:
  • Ветер - указаны скорость ветра в м/с - средняя за 10 мин, порывы в срок и между сроками (в фигурных скобках) и направление, откуда дует ветер: С - северный,
  • СВ - северо-восточный, В - восточный, ЮВ - юго-восточный, Ю - южный, ЮЗ - юго-западный, З - западный, СЗ - северо-западный.
  • Видимость - горизонтальная дальность видимости в метрах или километрах. При видимости от 1 до 10 км при отсутствии осадков обычно наблюдается дымка, при ухудшении видимости до 1 км и менее - туман. В сухую погоду видимость может ухудшаться дымом, пылью или мглою.
  • Явления - указаны атмосферные явления, наблюдавшиеся в срок или в последний час перед сроком; фигурными скобками обозначены явления, наблюдавшиеся между сроками (за 1-3 часа до срока); квадратными скобками обозначены град или гололедные отложения с указанием их диаметра в мм.
  • Облачность - указаны через наклонную черту общая и нижняя облачность в баллах и высота нижней границы облаков в метрах; квадратными скобками обозначены формы облаков: Ci - перистые, Cs - перисто-слоистые, Cc - перисто-кучевые, Ac - высококучевые, As - высокослоистые, Sc - слоисто-кучевые, Ns - слоисто-дождевые, Cu - кучевые, Cb - кучево-дождевые. Подробнее классификацию облаков см. в Атласе облаков (PDF).
  • T - Температура воздуха - температура, измеренная на высоте 2 м над землей.
  • Td - Температура точки росы - температура, при понижении до которой содержащийся в воздухе водяной пар достигнет насыщения.
  • f - Относительная влажность воздуха - влажноcть воздуха, измеренная на высоте 2 м над землей.
  • Te - Эффективная температура - температура, которую ощущает одетый по сезону человек в тени. Характеристика душности погоды. При расчете учитывается влияние влажности воздуха и скорости ветра на теплоощущения человека.
  • Tes - Эффективная температура на солнце - температура, которую ощущает человек, с поправкой на солнечный нагрев. Характеристика знойности погоды. Зависит от высоты солнца над горизонтом, облачности и скорости ветра. Ночью, в пасмурную погоду, а также при ветре 12 м/с и более поправка равна нулю.
  • P - Атмосферное давление - приведенное к уровню моря атмосферное давление.
  • Po - Атмосферное давление - измеренное на уровне метеостанции атмосферное давление.
  • Tmin - Минимальная температура - минимум температуры воздуха на высоте 2 м над землей.
  • Tmax - Максимальная температура - максимум температуры воздуха на высоте 2 м над землей.
  • R - Количество осадков - Количество выпавших осадков за период времени, мм. При наведении курсора мыши на число - период времени, за который выпало указанное количество осадков.
  • R24 - Количество осадков - Количество выпавших осадков за 24 часа, мм.
  • S - Снежный покров - Высота снежного покрова, см. При наведении курсора мыши на число - состояние снежного покрова и степень покрытия местности в баллах.